Location: Syracuse
(43.0480°N, 76.1480°W)
Time: 07:07:16
(UTC-04:00)

Daily predictions for brighter satellites

Satellite Brightness Start Highest point End
(mag) Time Altitude Azimuth Time Altitude Azimuth Time Altitude Azimuth
Cosmos 1943 Rocket 3.8 20:58:09 10° NW 21:03:06 33° WSW 21:07:59 10° SSW
Cosmos 2074 Rocket 4.1 20:57:56 10° N 21:04:10 68° E 21:10:24 10° SSE
Cosmos 1025 Rocket 4.0 21:01:21 10° SSE 21:04:59 28° E 21:08:37 10° NNE
GENESIS II 4.2 21:03:18 10° NNW 21:07:18 85° NE 21:11:11 10° SE
Spot 1 4.1 21:02:55 10° SSE 21:07:24 82° ENE 21:11:41 10° NNW
Cosmos 2184 Rocket 4.1 21:01:05 10° N 21:07:27 69° E 21:13:42 10° SSE
Aureole 1 Rocket 2.4 21:06:29 10° S 21:09:39 47° ESE 21:12:32 10° NNE
Cosmos 405 Rocket 2.8 21:12:27 10° SSW 21:16:13 82° W 21:20:05 10° N
Cosmos 1371 Rocket 4.5 21:13:06 10° N 21:18:18 49° ENE 21:23:23 10° SE
DEBRIS 3.6 21:15:27 10° SW 21:18:44 74° SE 21:29:38 10° ENE
Meteor 1-19 Rocket 4.3 21:14:58 10° S 21:20:47 89° W 21:26:33 10° N
ARGOS 4.1 21:17:14 10° SE 21:21:59 33° ENE 21:26:47 10° N
Okean 2 4.2 21:18:44 10° SSE 21:22:22 32° E 21:26:01 10° NNE
Cosmos 923 Rocket 4.5 21:17:24 10° SSW 21:22:42 69° WNW 21:28:00 10° NNE
Lacrosse 5 rocket 4.3 21:21:58 10° NNW 21:24:25 14° N 21:26:55 10° NNE
Meteor 1-23 Rocket 4.4 21:19:17 10° S 21:24:41 54° E 21:30:09 10° NNE
Tiangong 2 1.1 21:21:36 10° WSW 21:24:44 59° SSE 21:27:52 10° E
Cosmos 1441 Rocket 3.1 21:21:22 10° S 21:25:03 65° E 21:28:46 10° NNE
ERS-1 Rocket 3.1 21:21:52 10° SSE 21:26:47 59° ENE 21:31:44 10° N
CENTAUR R/B 3.7 21:20:28 10° NW 21:28:11 55° WSW 21:36:20 10° SSE
Resurs 01 Rocket 4.0 21:24:55 10° SW 21:28:24 22° W 21:31:53 10° NW
OE (NEXTSAT) 4.4 21:28:27 10° WNW 21:32:03 83° NNE 21:35:15 12° ESE
Terra 3.9 21:30:16 10° E 21:32:21 13° ENE 21:34:28 10° NNE
SPOT 5 3.5 21:30:14 12° SE 21:33:40 33° ENE 21:37:35 10° N
Meteor 1-29 3.3 21:30:43 10° N 21:34:05 66° WNW 21:37:25 10° SSW
Nadezhda 1 Rocket 4.1 21:31:07 10° S 21:37:27 84° E 21:43:54 10° N
H-2A R/B 4.3 21:38:38 10° E 21:40:56 14° ENE 21:43:13 10° NNE
MOS 1-B Rocket 4.2 21:35:57 11° SSE 21:41:24 63° ENE 21:47:53 10° N
MetOp-B 4.3 21:36:55 12° SSE 21:41:49 60° ENE 21:47:06 10° N
Meteor 1-15 Rocket 4.2 21:36:31 10° N 21:42:07 69° ENE 21:47:18 12° SSE
COSMOS 2406 4.0 21:37:32 10° SW 21:43:09 56° WNW 21:48:46 10° NNE
Cosmos 2278 4.2 21:39:29 10° NNW 21:45:00 47° ENE 21:49:20 16° SE
Cosmos 2082 Rocket 3.2 21:41:51 12° SSE 21:45:50 26° ESE 21:50:25 10° NE
Cosmos 2154 Rocket 4.0 21:45:11 10° N 21:51:35 81° E 21:57:43 11° S
CRYOSAT 2 4.5 21:49:31 10° S 21:54:22 76° W 21:59:14 10° N
Cosmos 1238 Rocket 4.3 21:50:09 10° SSW 21:56:54 76° W 22:03:21 10° N
ISS -2.9 21:56:23 10° WSW 21:59:37 51° NNW 22:02:51 10° NE
SL-24 DEB 4.5 21:57:20 18° SSE 22:00:30 52° E 22:05:01 10° N
ASTEX 1 3.9 21:56:01 10° S 22:00:51 60° W 22:05:43 10° NNW
Cosmos 1624 Rocket 4.0 21:56:14 10° NNW 22:01:33 87° WSW 22:05:36 18° SSE
OAO 2 Rocket 4.2 21:58:37 10° WSW 22:02:55 30° S 22:05:08 21° SE
H-2A R/B 2.5 21:59:49 19° SE 22:03:00 44° ENE 22:07:47 10° N
Cosmos 2369 3.8 21:59:09 10° NNW 22:04:52 66° ENE 22:08:44 21° SE
Cosmos 1697 Rocket 3.6 22:00:30 10° N 22:05:38 35° ENE 22:09:12 18° ESE
TELKOM 3 3.9 22:03:39 10° NW 22:05:56 50° NNE 22:07:27 23° E
Cosmos 2228 3.4 22:03:07 10° N 22:07:16 46° ENE 22:09:27 24° SE
Cosmos 967 Rocket 4.4 22:02:27 10° SSW 22:08:42 76° ESE 22:14:59 10° NE
Cosmos 921 Rocket 3.1 22:05:30 10° NNW 22:09:59 72° ENE 22:12:33 24° SSE
YAOGAN 6 4.3 22:07:07 10° SSW 22:10:10 28° W 22:13:14 10° NW
Cosmos 1656 3.9 22:08:00 10° NNW 22:13:21 54° ENE 22:16:38 23° SE
Meteor 1-4 Rocket 3.7 22:10:17 10° NNE 22:13:28 29° ENE 22:14:27 25° ESE
SL-08 RB Rocket 3.6 22:12:25 23° SSE 22:15:10 75° ENE 22:19:39 10° N
Cosmos 1892 Rocket 3.5 22:15:22 15° S 22:19:04 88° E 22:23:29 10° N
Cosmos 2056 Rocket 3.8 22:15:42 10° NNW 22:20:49 63° WSW 22:24:17 20° S
Cosmos 1437 Rocket 3.6 22:18:55 10° NNW 22:22:36 46° W 22:25:17 17° SSW
Cosmos 1833 Rocket 2.9 22:19:02 18° S 22:22:59 48° ESE 22:28:23 10° NE
Cosmos 2341 Rocket 4.1 22:18:02 10° N 22:24:23 79° W 22:29:27 17° S
NOSS 8 (E) 4.3 22:21:06 10° SSW 22:24:32 79° SE 22:28:18 10° NE
Cosmos 1602 Rocket 4.4 22:23:56 28° ESE 22:25:05 33° E 22:28:58 10° NNE
Cosmos 1271 Rocket 4.5 22:25:47 10° NNE 22:28:39 19° ENE 22:29:26 18° E
Cosmos 1606 Rocket 4.3 22:26:04 10° NNW 22:30:14 48° W 22:33:14 18° SSW
deb Chang Zheng 4 4.4 22:29:57 10° NE 22:33:47 30° E 22:34:20 29° ESE
Cosmos 839 Rocket 4.5 22:28:13 10° NW 22:34:46 72° WSW 22:39:48 24° SSE
Cosmos 2218 Rocket 4.0 22:29:44 10° N 22:35:54 68° E 22:39:18 28° SSE
Cosmos 1066 Rocket 4.1 22:34:16 23° S 22:37:42 71° E 22:43:20 10° NNE
Cosmos 1420 Rocket 4.4 22:33:46 10° N 22:38:55 52° ENE 22:41:10 31° SE
Cosmos 1726 Rocket 4.4 22:35:50 10° NNW 22:39:57 45° W 22:42:37 20° SSW
Cosmos 1809 Rocket 4.4 22:35:02 10° N 22:41:07 70° E 22:44:16 30° SSE
USA 245 3.8 22:42:20 25° WSW 22:42:38 26° W 22:44:42 10° NW
Cosmos 1953 4.4 22:40:12 10° NNE 22:42:41 16° ENE 22:43:18 15° E
COSMOS 2487 3.0 22:43:44 19° SW 22:46:05 56° WNW 22:49:37 10° N
CZ-3A R/B 2.3 22:47:42 10° WSW 22:48:50 18° W 22:48:50 18° W
CARTOSAT-1 3.6 22:50:14 43° SE 22:51:30 68° ENE 22:55:48 10° N
Cosmos 1452 Rocket 3.5 22:47:33 10° NNW 22:52:51 80° WSW 22:55:04 36° S
Cosmos 1980 Rocket 2.7 22:48:29 10° NNW 22:54:00 50° ENE 22:56:23 31° ESE
Landsat 7 3.8 22:52:26 36° S 22:54:24 80° WSW 22:59:11 10° NNW
SPOT 1/Viking Rocket 4.0 22:51:40 25° SSW 22:54:30 55° W 22:59:35 10° NNW
Cosmos 2058 Rocket 4.0 22:50:21 10° NNW 22:54:34 44° W 22:56:51 24° SSW
Meteor 1-21 4.5 22:56:53 36° SSE 22:58:52 53° E 23:04:25 10° NNE
Cosmos 1766 3.3 22:55:16 10° N 22:59:07 58° E 22:59:35 53° ESE
Tiangong 2 1.3 22:58:14 10° W 23:00:58 62° W 23:00:58 62° W
Cosmos 1544 4.0 22:58:10 10° N 23:01:29 34° ENE 23:01:29 34° ENE
ARGOS 4.4 22:58:32 17° SSW 23:02:09 35° W 23:07:07 10° NNW
Cosmos 2322 Rocket 3.8 22:59:34 10° N 23:04:12 25° NE 23:07:11 17° E
Nadezhda 3 Rocket 4.4 23:02:08 34° SE 23:04:20 46° E 23:10:21 10° NNE
Lacrosse 5 rocket 3.8 23:01:41 10° NNW 23:05:14 21° NNE 23:08:46 10° ENE
USA 267 3.9 23:00:01 10° ENE 23:05:41 31° SE 23:05:41 31° SE
Terra 1.8 23:07:56 45° S 23:09:25 81° WSW 23:14:13 10° NNW
H-2A R/B 2.3 23:15:12 48° SSW 23:16:21 70° WSW 23:20:54 10° NNW
Cosmos 1812 Rocket 3.5 23:13:09 10° N 23:17:39 85° W 23:18:32 58° S
IGS 5A 3.6 23:18:14 52° SSW 23:18:59 64° WSW 23:23:08 10° NNW
SeaSat 1 4.3 23:17:12 15° E 23:19:40 22° NE 23:23:25 10° N
PSLV R/B 4.3 23:24:25 38° NW 23:24:25 38° NW 23:26:23 10° NNW
Cosmos 1758 3.7 23:20:30 10° N 23:24:21 47° ENE 23:24:21 47° ENE
Spot 4 3.7 23:26:55 57° SSE 23:27:52 82° ENE 23:32:42 10° NNW
Cosmos 1626 Rocket 4.3 23:26:20 31° SW 23:27:55 46° WNW 23:32:05 10° N
Lacrosse 5 3.9 23:30:33 15° E 23:30:33 15° E 23:31:47 10° ENE
Cosmos 2082 Rocket 3.1 23:24:08 10° SW 23:29:37 48° WNW 23:35:05 10° NNE
ATLAS CENTAUR R/B 3.0 23:27:01 10° N 23:29:55 21° NE 23:30:40 20° ENE
CZ-2C R/B 4.0 23:25:38 10° NE 23:30:04 24° E 23:30:19 24° E
SL-19 R/B 4.3 23:25:37 10° N 23:30:57 70° WNW 23:33:15 34° SSW
Cosmos 1805 3.2 23:27:04 10° N 23:30:53 74° ENE 23:30:53 74° ENE
USA 229 DEB 3.7 23:29:06 10° NW 23:36:16 87° SW 23:39:05 42° SSE
USA 229 3.7 23:29:11 10° NW 23:36:23 88° SW 23:39:12 42° SSE
ISS -1.0 23:34:09 10° WNW 23:36:39 20° N 23:39:09 10° NE
Cosmos 972 Rocket 4.5 23:33:33 10° N 23:38:36 45° ENE 23:39:35 40° E
Cosmos 1953 Rocket 3.9 23:40:02 53° E 23:40:02 53° E 23:44:19 10° NNE
Cosmos 1825 Rocket 3.4 23:41:26 77° ESE 23:41:30 77° E 23:45:50 10° N
H-2A R/B 3.8 23:40:27 17° SW 23:42:38 22° W 23:46:30 10° NW
ALOS 2 3.9 23:46:15 28° E 23:46:40 29° ENE 23:50:27 10° N
Cosmos 158 Rocket 4.3 23:46:06 35° SW 23:48:15 64° WNW 23:53:37 10° NNE
Cosmos 1697 Rocket 3.6 23:44:30 10° NW 23:49:34 36° WSW 23:50:57 31° SW
Cosmos 2360 4.2 23:44:55 10° NNW 23:50:37 72° WSW 23:51:48 55° S
CZ-4C R/B 3.6 23:52:05 54° NW 23:52:05 54° NW 23:55:06 10° NNW
